EW0642 Weather Reports


Display with metric or nautical units.
time (UTC)temp
F
wind
direction
speed
MPH
gust
MPH
rain 1hr
in
rain 24hr
in
rain mn
in
humidity
%
barometer
mb
20260505035505 62 0 0.0 0.0 0.00 0.00 0.00 72 1010.6
20260505035026 62 0 0.0 0.0 0.00 0.00 0.00 72 1010.7
20260505034526 62 0 0.0 0.0 0.00 0.00 0.00 72 1010.7
20260505034026 62 179 1.0 4.0 0.00 0.00 0.00 72 1010.6
20260505033527 62 176 1.0 5.0 0.00 0.00 0.00 71 1010.6
20260505033005 62 163 1.0 5.0 0.00 0.00 0.00 71 1010.6
20260505032505 62 160 1.0 5.0 0.00 0.00 0.00 71 1010.6
20260505032006 63 172 1.0 6.0 0.00 0.00 0.00 70 1010.6
20260505031505 63 165 2.0 6.0 0.00 0.00 0.00 71 1010.6
20260505031027 63 164 2.0 8.0 0.00 0.00 0.00 70 1010.6
20260505030505 63 176 2.0 8.0 0.00 0.00 0.00 70 1010.6
20260505030026 63 173 2.0 7.0 0.00 0.00 0.00 70 1010.7
20260505025505 63 170 2.0 5.0 0.00 0.00 0.00 69 1010.7
20260505025005 63 165 2.0 6.0 0.00 0.00 0.00 68 1010.7
20260505024526 63 153 1.0 6.0 0.00 0.00 0.00 67 1010.7
20260505024026 64 132 1.0 5.0 0.00 0.00 0.00 66 1010.7
20260505023505 64 124 1.0 3.0 0.00 0.00 0.00 65 1010.6
20260505023005 64 138 0.0 3.0 0.00 0.00 0.00 64 1010.6
20260505022526 64 148 0.0 3.0 0.00 0.00 0.00 63 1010.7
20260505022005 64 135 1.0 3.0 0.00 0.00 0.00 62 1010.6
20260505021526 64 133 1.0 5.0 0.00 0.00 0.00 62 1010.6
20260505021005 64 156 1.0 5.0 0.00 0.00 0.00 61 1010.6
20260505020526 64 154 2.0 6.0 0.00 0.00 0.00 62 1010.6
20260505020005 64 140 1.0 6.0 0.00 0.00 0.00 61 1010.6
20260505015526 64 123 1.0 4.0 0.00 0.00 0.00 61 1010.5
20260505015027 64 125 1.0 4.0 0.00 0.00 0.00 62 1010.3
20260505014506 64 158 1.0 5.0 0.00 0.00 0.00 63 1010.2
20260505014005 64 171 1.0 5.0 0.00 0.00 0.00 63 1010.4
20260505013526 64 169 1.0 5.0 0.00 0.00 0.00 64 1010.5
20260505013025 64 175 1.0 5.0 0.00 0.00 0.00 64 1010.4
20260505012526 64 170 1.0 5.0 0.00 0.00 0.00 64 1010.5
20260505012026 64 164 1.0 5.0 0.00 0.00 0.00 63 1010.4
20260505011505 64 157 0.0 4.0 0.00 0.00 0.00 63 1010.3
20260505011005 64 138 0.0 1.0 0.00 0.00 0.00 63 1010.3
20260505010505 64 132 0.0 2.0 0.00 0.00 0.00 62 1010.3
20260505010005 65 124 1.0 4.0 0.00 0.00 0.00 62 1010.1
20260505005526 65 118 1.0 4.0 0.00 0.00 0.00 62 1010.0
20260505005026 65 117 1.0 4.0 0.00 0.00 0.00 62 1010.0
20260505004526 65 117 1.0 3.0 0.00 0.00 0.00 62 1009.9
20260505004026 65 113 0.0 3.0 0.00 0.00 0.00 62 1010.0
20260505003526 65 141 0.0 2.0 0.00 0.00 0.00 61 1010.0
20260505003007 66 154 0.0 2.0 0.00 0.00 0.00 61 1010.0
20260505002505 66 140 0.0 2.0 0.00 0.00 0.00 60 1010.0
20260505002026 66 125 0.0 2.0 0.00 0.00 0.00 60 1010.0
20260505001526 66 116 1.0 6.0 0.00 0.00 0.00 59 1009.9
20260505001006 66 117 1.0 6.0 0.00 0.00 0.00 59 1010.0
20260505000505 67 118 1.0 2.0 0.00 0.00 0.00 58 1010.0
20260505000005 67 110 1.0 2.0 0.00 0.00 0.00 57 1009.9
20260504235505 67 112 1.0 3.0 0.00 0.00 0.00 56 1010.0
20260504235005 68 120 1.0 3.0 0.00 0.00 0.00 54 1010.0
20260504234526 68 111 1.0 3.0 0.00 0.00 0.00 53 1010.0
20260504234026 68 115 1.0 5.0 0.00 0.00 0.00 53 1010.0
20260504233525 68 118 2.0 5.0 0.00 0.00 0.00 51 1010.0
20260504233005 69 122 1.0 5.0 0.00 0.00 0.00 51 1009.9
20260504232505 69 134 2.0 5.0 0.00 0.00 0.00 50 1009.9
20260504232027 69 133 2.0 11.0 0.00 0.00 0.00 49 1009.9
20260504231526 69 148 2.0 11.0 0.00 0.00 0.00 49 1009.9
20260504231005 69 158 3.0 9.0 0.00 0.00 0.00 48 1010.0
20260504230505 69 160 4.0 11.0 0.00 0.00 0.00 47 1009.9
20260504230005 70 164 3.0 11.0 0.00 0.00 0.00 47 1009.9
20260504225526 70 155 3.0 11.0 0.00 0.00 0.00 47 1009.9
20260504225026 70 139 3.0 10.0 0.00 0.00 0.00 48 1009.9
20260504224526 70 139 3.0 10.0 0.00 0.00 0.00 46 1010.0
20260504224027 70 151 4.0 10.0 0.00 0.00 0.00 46 1010.0
20260504223505 71 157 5.0 12.0 0.00 0.00 0.00 46 1010.0
20260504223005 71 164 5.0 12.0 0.00 0.00 0.00 46 1010.0
20260504222505 71 154 5.0 12.0 0.00 0.00 0.00 46 1009.9
20260504222026 71 132 5.0 19.0 0.00 0.00 0.00 45 1010.0
20260504221504 71 133 5.0 19.0 0.00 0.00 0.00 44 1010.0
20260504221005 72 135 4.0 13.0 0.00 0.00 0.00 44 1009.9
20260504220527 72 132 3.0 13.0 0.00 0.00 0.00 44 1009.9
20260504220026 72 139 3.0 13.0 0.00 0.00 0.00 43 1009.9
20260504215526 72 131 4.0 12.0 0.00 0.00 0.00 43 1009.8
20260504215026 72 128 4.0 14.0 0.00 0.00 0.00 43 1009.8
20260504214527 72 145 4.0 14.0 0.00 0.00 0.00 43 1009.9
20260504214026 72 135 5.0 13.0 0.00 0.00 0.00 43 1009.9
20260504213507 72 133 6.0 15.0 0.00 0.00 0.00 41 1009.9
20260504213026 73 147 6.0 15.0 0.00 0.00 0.00 40 1009.9
20260504212505 74 155 5.0 12.0 0.00 0.00 0.00 40 1009.9
20260504212026 74 145 5.0 12.0 0.00 0.00 0.00 39 1009.9
20260504211505 74 145 4.0 15.0 0.00 0.00 0.00 38 1009.9
20260504211005 74 149 4.0 15.0 0.00 0.00 0.00 38 1009.9
20260504210505 74 137 5.0 13.0 0.00 0.00 0.00 38 1009.9
20260504210026 74 140 6.0 13.0 0.00 0.00 0.00 39 1009.9
20260504205504 75 135 5.0 14.0 0.00 0.00 0.00 37 1010.0
20260504205026 75 136 4.0 14.0 0.00 0.00 0.00 38 1010.1
20260504204526 76 121 4.0 12.0 0.00 0.00 0.00 38 1010.1
20260504204005 76 119 3.0 12.0 0.00 0.00 0.00 38 1010.0
20260504203526 76 126 3.0 11.0 0.00 0.00 0.00 37 1010.1
20260504203027 77 130 3.0 10.0 0.00 0.00 0.00 36 1010.0
20260504202526 78 152 2.0 9.0 0.00 0.00 0.00 35 1010.1
20260504202004 78 181 2.0 9.0 0.00 0.00 0.00 35 1010.2
20260504201505 78 171 3.0 7.0 0.00 0.00 0.00 34 1010.2
20260504201005 78 170 2.0 7.0 0.00 0.00 0.00 34 1010.2
20260504200505 78 187 2.0 7.0 0.00 0.00 0.00 35 1010.3
20260504200005 77 137 3.0 11.0 0.00 0.00 0.00 37 1010.4
20260504195526 76 120 3.0 11.0 0.00 0.00 0.00 35 1010.4
20260504195026 76 146 3.0 8.0 0.00 0.00 0.00 35 1010.6
20260504194526 77 169 3.0 8.0 0.00 0.00 0.00 34 1010.6
20260504194005 76 121 3.0 12.0 0.00 0.00 0.00 36 1010.7
20260504193525 76 132 4.0 12.0 0.00 0.00 0.00 33 1010.8
20260504193005 77 156 4.0 12.0 0.00 0.00 0.00 35 1011.0
20260504192526 77 159 4.0 12.0 0.00 0.00 0.00 33 1011.0
20260504192005 78 184 3.0 12.0 0.00 0.00 0.00 34 1011.1
20260504191526 77 176 4.0 12.0 0.00 0.00 0.00 34 1011.1
20260504191006 77 160 3.0 8.0 0.00 0.00 0.00 33 1011.2
20260504190526 78 170 3.0 8.0 0.00 0.00 0.00 33 1011.3
20260504190004 78 203 3.0 8.0 0.00 0.00 0.00 33 1011.3
20260504185526 77 203 3.0 8.0 0.00 0.00 0.00 35 1011.4
20260504185005 77 148 3.0 9.0 0.00 0.00 0.00 35 1011.4
20260504184505 77 143 3.0 9.0 0.00 0.00 0.00 34 1011.6
20260504184005 78 155 3.0 9.0 0.00 0.00 0.00 35 1011.7
20260504183526 78 172 2.0 9.0 0.00 0.00 0.00 33 1011.7
20260504183026 77 179 3.0 10.0 0.00 0.00 0.00 33 1011.7
20260504182526 77 167 3.0 10.0 0.00 0.00 0.00 33 1011.8
20260504182026 77 122 2.0 8.0 0.00 0.00 0.00 32 1011.8
20260504181525 77 126 3.0 8.0 0.00 0.00 0.00 32 1011.9
20260504181026 77 140 2.0 7.0 0.00 0.00 0.00 33 1012.0
20260504180506 76 172 3.0 10.0 0.00 0.00 0.00 33 1012.0
20260504180026 76 168 3.0 10.0 0.00 0.00 0.00 33 1012.1
20260504175506 76 126 3.0 11.0 0.00 0.00 0.00 32 1012.1
20260504175025 76 141 3.0 11.0 0.00 0.00 0.00 31 1012.2
20260504174526 76 165 3.0 7.0 0.00 0.00 0.00 33 1012.1
20260504174005 76 172 3.0 10.0 0.00 0.00 0.00 32 1012.3
20260504173526 75 176 4.0 11.0 0.00 0.00 0.00 35 1012.4
20260504173027 75 172 4.0 11.0 0.00 0.00 0.00 32 1012.4
20260504172505 75 202 4.0 13.0 0.00 0.00 0.00 32 1012.4
20260504172005 75 213 4.0 13.0 0.00 0.00 0.00 31 1012.6
20260504171526 75 232 4.0 11.0 0.00 0.00 0.00 32 1012.5
20260504171006 74 225 4.0 11.0 0.00 0.00 0.00 32 1012.6
20260504170504 74 205 5.0 11.0 0.00 0.00 0.00 31 1012.6
20260504151004 70 153 3.0 9.0 0.00 0.00 0.00 39 1014.0
20260504150526 69 170 3.0 9.0 0.00 0.00 0.00 39 1014.0
20260504141005 64 230 3.0 8.0 0.00 0.00 0.00 45 1014.3
20260504140505 64 203 3.0 8.0 0.00 0.00 0.00 46 1014.4
20260504130526 59 182 4.0 10.0 0.00 0.00 0.00 52 1014.7
20260504110505 51 175 3.0 10.0 0.00 0.00 0.00 66 1015.2
20260504100526 51 204 2.0 8.0 0.00 0.00 0.00 67 1015.3
20260504082004 50 166 1.0 2.0 0.00 0.00 0.00 67 1015.5
20260504081526 50 171 0.0 4.0 0.00 0.00 0.00 67 1015.5
20260504081027 50 184 1.0 4.0 0.00 0.00 0.00 67 1015.5
20260504080525 50 185 1.0 4.0 0.00 0.00 0.00 67 1015.5
20260504050504 43 0 0.0 0.0 0.00 0.00 0.00 75 1015.6
20260504045505 43 0 0.0 0.0 0.00 0.00 0.00 76 1015.6
20260504045026 43 0 0.0 0.0 0.00 0.00 0.00 77 1015.7
20260504044526 43 0 0.0 0.0 0.00 0.00 0.00 77 1015.8
20260504044004 43 0 0.0 0.0 0.00 0.00 0.00 78 1015.8
20260504043526 43 0 0.0 0.0 0.00 0.00 0.00 79 1015.8
20260504043025 43 0 0.0 0.0 0.00 0.00 0.00 79 1015.7
20260504042506 43 0 0.0 0.0 0.00 0.00 0.00 78 1015.7
20260504042004 43 0 0.0 0.0 0.00 0.00 0.00 78 1015.8
20260504041525 43 0 0.0 0.0 0.00 0.00 0.00 78 1015.7
20260504041026 43 0 0.0 0.0 0.00 0.00 0.00 78 1015.7
20260504040504 43 0 0.0 0.0 0.00 0.00 0.00 78 1015.7
20260504040026 43 0 0.0 0.0 0.00 0.00 0.00 78 1015.8